This is the latest recevied weather packets stored in our database for station/object EW8324. If no packets are shown the sender has not sent any weather packets the latest 10 day(s).
| Time | Temp. | Humidity | Pressure | Rain* | Wind** | Luminosity | Snow |
|---|---|---|---|---|---|---|---|
| 1778017261 | - | - | 1002.8 hPa | 0 mm | - | - | - |
| 1778016963 | 29.44° C | 72% | 1002.7 hPa | 0 mm | - | - | - |
| 1778016661 | 29.44° C | 73% | 1002.8 hPa | 0 mm | - | 197 W/m² | - |
| 1778016359 | - | - | 1002.8 hPa | 0 mm | - | - | - |
| 1778016072 | 29.44° C | 73% | 1002.8 hPa | 0 mm | - | - | - |
| 1778015820 | 29.44° C | 73% | 1003 hPa | 0 mm | - | 190 W/m² | - |
| 1778015457 | - | - | 1003 hPa | 0 mm | - | - | - |
| 1778015157 | - | - | 1003 hPa | 0 mm | - | - | - |
| 1778014872 | 29.44° C | 73% | 1003.1 hPa | 0 mm | - | - | - |
| 1778014556 | 29.44° C | 73% | 1003 hPa | 0 mm | - | - | - |
| 1778014317 | 29.44° C | 72% | 1003.1 hPa | 0 mm | - | 260 W/m² | - |
| 1778013956 | 29.44° C | 72% | 1003.2 hPa | 0 mm | - | - | - |
| 1778013656 | 29.44° C | 72% | 1003.3 hPa | 0 mm | - | - | - |
| 1778013416 | 29.44° C | 73% | 1003.4 hPa | 0 mm | - | 218 W/m² | - |
| 1778013057 | 29.44° C | 72% | 1003.3 hPa | 0 mm | - | 230 W/m² | - |
| 1778012754 | 29.44° C | 73% | 1003.4 hPa | 0 mm | - | 325 W/m² | - |
| 1778012455 | 28.89° C | 74% | 1003.5 hPa | 0 mm | - | 369 W/m² | - |
| 1778012214 | 28.89° C | 75% | 1003.5 hPa | 0 mm | - | 288 W/m² | - |
| 1778011854 | 28.89° C | 75% | 1003.6 hPa | 0 mm | - | 329 W/m² | - |
| 1778011552 | 28.89° C | 74% | 1003.8 hPa | 0 mm | - | 257 W/m² | - |
| 1778011270 | 28.89° C | 74% | 1003.8 hPa | 0 mm | - | 373 W/m² | - |
| 1778010953 | 28.89° C | 75% | 1003.9 hPa | 0 mm | - | 508 W/m² | - |
| 1778010715 | 28.89° C | 74% | 1004 hPa | 0 mm | - | 306 W/m² | - |
| 1778010354 | 28.89° C | 75% | 1004.1 hPa | 0 mm | - | 213 W/m² | - |
| 1778010056 | 28.33° C | 75% | 1004.1 hPa | 0 mm | - | 348 W/m² | - |
* Rain latest hour (hover to see other rain measurements)
** Current wind speed in m/s (hover to see current wind gust speed)